Fergus Falls, MN

9:43 AM CST on November 12, 2019 (GMT -0600)
Fergus Falls Municipal-Mickelson

Weather History for KFFM - September, 2019

Change the Weather History Date:

Monday, September 9, 2019

  Actual Average Record
Temperature  
Mean Temperature 60 °F -  
Max Temperature 64 °F 74 °F 92 °F (1978)
Min Temperature 55 °F 51 °F 39 °F (1992)
Degree Days  
Heating Degree Days 6    
Growing Degree Days 10 (Base 50)    
Moisture  
Dew Point 57 °F    
Average Humidity 94    
Maximum Humidity 100    
Minimum Humidity 82    
Precipitation  
Precipitation 0.01 in - - ()
Sea Level Pressure  
Sea Level Pressure 29.90 in    
Wind  
Wind Speed 10 mph ()    
Max Wind Speed 20 mph    
Max Gust Speed 28 mph    
Visibility 7.6 miles    
Events Rain , Thunderstorm    
Averages and records for this station are not official NWS values.
T = Trace of Precipitation, MM = Missing Value Source: Averaged Metar Reports

Daily Weather History Graph

Daily Weather History Graph

Search for Another Location

Airport or City:

Astronomy

Sep. 09, 2019 Rise Set
Actual Time 6:54 AM CDT 7:48 PM CDT
Civil Twilight 6:24 AM CDT 8:18 PM CDT
Nautical Twilight 5:47 AM CDT 8:55 PM CDT
Astronomical Twilight 5:09 AM CDT 9:33 PM CDT
Moon 6:00 PM CDT (9/9) 2:10 AM CDT (9/9)
Length of Visible Light 13h 54m
Length of Day
12h 53m
Waxing Gibbous, 83% of the Moon is Illuminated
Sep 9
Waxing Gibbous
Sep 13
Full
Sep 21
Last Quarter
Sep 28
New
Oct 5
First Quarter

Hourly Weather History & Observations

Time (CDT) Temp. Dew Point Humidity Pressure Visibility Wind Dir Wind Speed Gust Speed Precip Events Conditions
12:17 AM 57.2 °F 51.8 °F 82% 30.10 in 10.0 mi ESE 10.4 mph - N/A   Overcast
12:35 AM 57.2 °F 51.8 °F 82% 30.11 in 10.0 mi SE 8.1 mph - N/A   Overcast
12:55 AM 57.2 °F 51.8 °F 82% 30.11 in 10.0 mi SE 9.2 mph - N/A   Overcast
12:56 AM 57.2 °F 51.8 °F 82% 30.11 in 10.0 mi SE 9.2 mph - N/A   Overcast
1:15 AM 57.2 °F 51.8 °F 82% 30.11 in 10.0 mi SE 6.9 mph - N/A   Overcast
1:16 AM 57.2 °F 51.8 °F 82% 30.11 in 10.0 mi SE 8.1 mph - N/A   Overcast
1:38 AM 57.2 °F 53.6 °F 88% 30.10 in 10.0 mi SE 5.8 mph - N/A   Overcast
1:56 AM 57.2 °F 51.8 °F 82% 30.10 in 10.0 mi ESE 6.9 mph - N/A   Overcast
2:15 AM 57.2 °F 51.8 °F 82% 30.08 in 10.0 mi ESE 6.9 mph - N/A   Overcast
2:35 AM 57.2 °F 53.6 °F 88% 30.08 in 10.0 mi ESE 5.8 mph - N/A   Overcast
2:36 AM 57.2 °F 53.6 °F 88% 30.08 in 10.0 mi SE 6.9 mph - N/A   Overcast
2:55 AM 57.2 °F 53.6 °F 88% 30.07 in 10.0 mi ESE 8.1 mph - N/A   Overcast
2:59 AM 57.2 °F 53.6 °F 88% 30.07 in 10.0 mi ESE 10.4 mph - N/A   Overcast
3:18 AM 55.4 °F 53.6 °F 94% 30.06 in 3.0 mi ESE 9.2 mph - N/A   Overcast
3:35 AM 55.4 °F 53.6 °F 94% 30.06 in 7.0 mi ESE 8.1 mph - N/A   Overcast
3:55 AM 55.4 °F 55.4 °F 100% 30.05 in 3.0 mi ESE 9.2 mph - N/A   Overcast
3:56 AM 55.4 °F 55.4 °F 100% 30.05 in 3.0 mi ESE 10.4 mph - N/A   Overcast
4:15 AM 55.4 °F 55.4 °F 100% 30.03 in 2.5 mi ESE 9.2 mph - N/A   Overcast
4:16 AM 55.4 °F 55.4 °F 100% 30.04 in 2.5 mi ESE 9.2 mph - N/A   Overcast
4:38 AM 55.4 °F 55.4 °F 100% 30.06 in 10.0 mi SE 9.2 mph - N/A   Overcast
4:56 AM 55.4 °F 55.4 °F 100% 30.05 in 4.0 mi ESE 8.1 mph - N/A   Overcast
5:15 AM 55.4 °F 55.4 °F 100% 30.04 in 7.0 mi ESE 9.2 mph - N/A   Overcast
5:35 AM 55.4 °F 55.4 °F 100% 30.02 in 10.0 mi ESE 8.1 mph - N/A   Overcast
5:36 AM 55.4 °F 55.4 °F 100% 30.02 in 10.0 mi ESE 8.1 mph - N/A   Overcast
5:55 AM 55.4 °F 55.4 °F 100% 30.01 in 10.0 mi ESE 9.2 mph - N/A   Overcast
5:59 AM 57.2 °F 55.4 °F 94% 30.01 in 10.0 mi ESE 10.4 mph - N/A   Overcast
6:17 AM 57.2 °F 55.4 °F 94% 30.01 in 10.0 mi SE 10.4 mph - N/A   Overcast
6:36 AM 57.2 °F 55.4 °F 94% 30.01 in 10.0 mi SE 10.4 mph 16.1 mph N/A   Overcast
6:55 AM 57.2 °F 55.4 °F 94% 30.01 in 10.0 mi SE 11.5 mph 16.1 mph N/A   Overcast
6:56 AM 57.2 °F 55.4 °F 94% 30.01 in 10.0 mi SE 12.7 mph 16.1 mph N/A   Overcast
7:15 AM 57.2 °F 55.4 °F 94% 30.01 in 10.0 mi ESE 12.7 mph 16.1 mph N/A   Overcast
7:19 AM 57.2 °F 55.4 °F 94% 30.01 in 10.0 mi ESE 10.4 mph 17.3 mph N/A   Overcast
7:37 AM 57.2 °F 55.4 °F 94% 30.02 in 10.0 mi SE 11.5 mph 18.4 mph N/A   Overcast
7:56 AM 57.2 °F 55.4 °F 94% 30.00 in 10.0 mi ESE 12.7 mph 17.3 mph N/A   Overcast
8:15 AM 57.2 °F 55.4 °F 94% 29.99 in 10.0 mi ESE 10.4 mph 18.4 mph N/A   Overcast
8:16 AM 57.2 °F 55.4 °F 94% 29.99 in 10.0 mi ESE 11.5 mph 18.4 mph N/A   Overcast
8:35 AM 57.2 °F 55.4 °F 94% 29.98 in 10.0 mi ESE 13.8 mph 17.3 mph N/A   Overcast
8:58 AM 57.2 °F 55.4 °F 94% 29.97 in 10.0 mi ESE 12.7 mph 19.6 mph N/A   Overcast
9:16 AM 57.2 °F 55.4 °F 94% 29.96 in 10.0 mi ESE 11.5 mph 18.4 mph N/A   Overcast
9:35 AM 57.2 °F 55.4 °F 94% 29.95 in 10.0 mi ESE 13.8 mph 20.7 mph N/A   Overcast
9:36 AM 57.2 °F 55.4 °F 94% 29.95 in 10.0 mi ESE 16.1 mph 20.7 mph N/A   Overcast
9:55 AM 57.2 °F 55.4 °F 94% 29.95 in 10.0 mi SE 15.0 mph 24.2 mph N/A   Overcast
9:56 AM 57.2 °F 55.4 °F 94% 29.95 in 10.0 mi ESE 13.8 mph 24.2 mph N/A   Overcast
10:15 AM 57.2 °F 55.4 °F 94% 29.94 in 4.0 mi ESE 15.0 mph 19.6 mph N/A Rain Light Rain
10:20 AM 57.2 °F 55.4 °F 94% 29.93 in 3.0 mi ESE 12.7 mph 19.6 mph N/A Rain Light Rain
10:37 AM 57.2 °F 55.4 °F 94% 29.91 in 7.0 mi ESE 13.8 mph 21.9 mph N/A   Overcast
10:55 AM 57.2 °F 55.4 °F 94% 29.92 in 10.0 mi ESE 16.1 mph - N/A   Overcast
11:15 AM 57.2 °F 55.4 °F 94% 29.92 in 10.0 mi ESE 12.7 mph 18.4 mph N/A Thunderstorm Overcast
11:16 AM 57.2 °F 55.4 °F 94% 29.92 in 10.0 mi ESE 12.7 mph 18.4 mph N/A Thunderstorm Overcast
11:35 AM 57.2 °F 55.4 °F 94% 29.92 in 3.0 mi ESE 12.7 mph - N/A Rain , Thunderstorm Light Thunderstorms and Rain
11:36 AM 57.2 °F 55.4 °F 94% 29.92 in 3.0 mi ESE 11.5 mph - N/A Rain , Thunderstorm Light Thunderstorms and Rain
11:59 AM 57.2 °F 55.4 °F 94% 29.90 in 2.0 mi ESE 15.0 mph - N/A Rain Rain
12:16 PM 57.2 °F 57.2 °F 100% 29.88 in 5.0 mi ESE 13.8 mph 24.2 mph N/A Rain Light Rain
12:36 PM 59.0 °F 57.2 °F 94% 29.86 in 7.0 mi SE 18.4 mph 26.5 mph N/A Rain , Thunderstorm Light Thunderstorms and Rain
12:55 PM 59.0 °F 57.2 °F 94% 29.85 in 10.0 mi SE 19.6 mph 27.6 mph N/A   Scattered Clouds
1:15 PM 60.8 °F 57.2 °F 88% 29.87 in 10.0 mi SE 12.7 mph 26.5 mph N/A   Mostly Cloudy
1:19 PM 60.8 °F 57.2 °F 88% 29.86 in 10.0 mi SE 13.8 mph 20.7 mph N/A   Mostly Cloudy
1:37 PM 59.0 °F 55.4 °F 88% 29.86 in 10.0 mi SE 13.8 mph - N/A Rain , Thunderstorm Light Thunderstorms and Rain
1:55 PM 59.0 °F 57.2 °F 94% 29.85 in 0.8 mi SE 17.3 mph 23.0 mph N/A Rain , Thunderstorm Heavy Thunderstorms and Rain
2:15 PM 59.0 °F 57.2 °F 94% 29.83 in 5.0 mi ESE 17.3 mph 21.9 mph N/A Rain Light Rain
2:16 PM 59.0 °F 57.2 °F 94% 29.83 in 5.0 mi ESE 17.3 mph 21.9 mph N/A Rain Light Rain
2:35 PM 59.0 °F 57.2 °F 94% 29.82 in 10.0 mi ESE 13.8 mph 24.2 mph 0.01 in   Overcast
2:36 PM 59.0 °F 57.2 °F 94% 29.82 in 10.0 mi ESE 15.0 mph 24.2 mph 0.01 in   Overcast
2:58 PM 57.2 °F 57.2 °F 100% 29.81 in 2.5 mi ESE 17.3 mph - N/A Rain Light Rain
3:17 PM 59.0 °F 57.2 °F 94% 29.80 in 5.0 mi ESE 13.8 mph 20.7 mph N/A Rain Light Rain
3:36 PM 59.0 °F 57.2 °F 94% 29.80 in 10.0 mi SE 12.7 mph 24.2 mph N/A   Overcast
3:55 PM 59.0 °F 57.2 °F 94% 29.79 in 2.5 mi SE 16.1 mph 21.9 mph N/A Rain Light Rain
3:56 PM 59.0 °F 57.2 °F 94% 29.79 in 2.5 mi SE 12.7 mph 21.9 mph N/A Rain Light Rain
4:15 PM 59.0 °F 57.2 °F 94% 29.78 in 2.0 mi SE 15.0 mph 23.0 mph N/A Rain Light Rain
4:19 PM 59.0 °F 57.2 °F 94% 29.78 in 2.0 mi SE 18.4 mph 23.0 mph N/A Rain Light Rain
4:36 PM 59.0 °F 57.2 °F 94% 29.78 in 3.0 mi SE 12.7 mph 20.7 mph N/A Rain Rain
4:55 PM 59.0 °F 57.2 °F 94% 29.77 in 1.5 mi SE 11.5 mph - N/A Rain Light Rain
4:56 PM 59.0 °F 57.2 °F 94% 29.77 in 1.5 mi SE 10.4 mph - N/A Rain Light Rain
5:16 PM 59.0 °F 57.2 °F 94% 29.75 in 1.0 mi SE 16.1 mph - N/A Rain Heavy Rain
5:35 PM 59.0 °F 59.0 °F 100% 29.76 in 0.5 mi SE 8.1 mph - N/A Rain Rain
5:57 PM 60.8 °F 59.0 °F 94% 29.75 in 10.0 mi ESE 5.8 mph - N/A   Overcast
6:15 PM 60.8 °F 60.8 °F 100% 29.74 in 10.0 mi SE 8.1 mph - N/A   Overcast
6:35 PM 60.8 °F 60.8 °F 100% 29.74 in 10.0 mi SE 8.1 mph - N/A   Overcast
6:36 PM 60.8 °F 60.8 °F 100% 29.74 in 10.0 mi SE 6.9 mph - N/A   Overcast
6:55 PM 62.6 °F 60.8 °F 94% 29.74 in 10.0 mi SE 9.2 mph - N/A   Overcast
6:56 PM 62.6 °F 60.8 °F 94% 29.74 in 10.0 mi SSE 9.2 mph - N/A   Overcast
7:19 PM 62.6 °F 60.8 °F 94% 29.74 in 10.0 mi SSE 4.6 mph - N/A   Overcast
7:36 PM 62.6 °F 60.8 °F 94% 29.75 in 10.0 mi SSE 4.6 mph - N/A   Overcast
7:56 PM 62.6 °F 60.8 °F 94% 29.74 in 10.0 mi SE 8.1 mph - N/A   Overcast
8:15 PM 62.6 °F 60.8 °F 94% 29.74 in 10.0 mi SSE 4.6 mph - N/A   Overcast
8:35 PM 62.6 °F 60.8 °F 94% 29.73 in 10.0 mi SE 9.2 mph - N/A   Overcast
8:39 PM 62.6 °F 62.6 °F 100% 29.73 in 10.0 mi SE 9.2 mph - N/A   Overcast
8:58 PM 62.6 °F 62.6 °F 100% 29.72 in 10.0 mi SE 8.1 mph - N/A   Overcast
9:15 PM 62.6 °F 62.6 °F 100% 29.72 in 10.0 mi ESE 9.2 mph - N/A   Overcast
9:35 PM 62.6 °F 62.6 °F 100% 29.71 in 7.0 mi SE 9.2 mph - N/A   Overcast
9:36 PM 62.6 °F 62.6 °F 100% 29.71 in 7.0 mi SE 8.1 mph - N/A   Overcast
9:55 PM 64.4 °F 64.4 °F 100% 29.71 in 3.0 mi SE 8.1 mph - N/A   Overcast
10:18 PM 64.4 °F 64.4 °F 100% 29.71 in 4.0 mi East 4.6 mph - N/A   Overcast
10:37 PM 64.4 °F 64.4 °F 100% 29.74 in 5.0 mi Calm Calm - N/A   Overcast
10:56 PM 64.4 °F 64.4 °F 100% 29.73 in 4.0 mi Calm Calm - N/A Rain Light Rain
11:15 PM 64.4 °F 64.4 °F 100% 29.73 in 7.0 mi Calm Calm - N/A   Mostly Cloudy
11:16 PM 64.4 °F 64.4 °F 100% 29.73 in 7.0 mi Calm Calm - N/A   Mostly Cloudy
11:35 PM 64.4 °F 62.6 °F 94% 29.72 in 10.0 mi SE 5.8 mph - N/A   Scattered Clouds
11:57 PM 62.6 °F 62.6 °F 100% 29.72 in 10.0 mi SE 5.8 mph - N/A   Clear